Location: Crescent
(42.8242°N, 73.7329°W)
Time: 00:37:47
(UTC+00:00)

Explorer 7 - Pass Details

Date: 24 February 2026
Orbit: 430 x 541 km, 50.2° (Epoch: 10 March)

Event Time Altitude Azimuth Distance (km) Brightness Sun altitude
Rises 20:14:21 0° 290° (WNW) 2,431 10.5 22.9°
Reaches altitude 10° 20:16:44 10° 305° (NW) 1,576 9.4 22.5°
Maximum altitude 20:19:41 24° 2° (N) 986 7.9 22.1°
Drops below altitude 10° 20:22:44 10° 58° (ENE) 1,625 8.7 21.7°
Sets 20:25:14 0° 73° (ENE) 2,526 9.6 21.3°
